User: anonymous   Login
Location: Unspecified
(0.0000°N, 0.0000°E)
Time: 07:47:08
(UTC+00:00)
Language:

RAX-2 - Orbit

View from above orbital plane
View from above orbital plane
View from above satellite
View from above satellite

Ground track
Ground track

The orbit data is extracted from the following two-line orbital elements,

1 37853U 11061D   14297.80873699  .00012288  00000-0  81179-3 0  9448
2 37853 101.7038 029.3733 0210770 041.3074 071.6997 14.91244922161961
Epoch (UTC): 24 October 2014 19:24:34
Eccentricity: 0.0210770
inclination: 101.7038°
perigee height: 447 km
apogee height: 741 km
right ascension of ascending node: 29.3733°
argument of perigee: 41.3074°
revolutions per day: 14.91244922
mean anomaly at epoch: 71.6997°
orbit number at epoch: 16196

The dashed part of the orbit path shows where the satellite is in the earth's shadow,  

DLR